Weather History for Houghton, MI

Change the Weather History Date:

Friday, July 5, 2013

  Actual Average Record
Temperature  
Mean Temperature 74 °F -  
Max Temperature 88 °F 75 °F 96 °F (1986)
Min Temperature 61 °F 52 °F 37 °F (1967)
Cooling Degree Days 9    
Growing Degree Days 24 (Base 50)    
Moisture  
Dew Point 57 °F    
Average Humidity 56    
Maximum Humidity 87    
Minimum Humidity 30    
Precipitation  
Precipitation 0.00 in - - ()
Sea Level Pressure  
Sea Level Pressure 29.89 in    
Wind  
Wind Speed 6 mph (SSW)    
Max Wind Speed 13 mph    
Max Gust Speed 21 mph    
Visibility 10 miles    
Events      
Averages and records for this station are not official NWS values.
T = Trace of Precipitation, MM = Missing Value Source: NWS Daily Summary

Daily Weather History Graph

Daily Weather History Graph

Search for Another Location

Airport:

Trip Planner

Search our weather history database for the weather conditions in past years. The results will help you decide how hot, cold, wet, or windy it might be!

Date:

Astronomy

Jul. 05, 2013 Rise Set
Actual Time 6:05 AM EDT 9:51 PM EDT
Civil Twilight 5:25 AM EDT 10:31 PM EDT
Nautical Twilight 4:32 AM EDT 11:24 PM EDT
Astronomical Twilight 3:14 AM EDT 12:41 AM EDT
Moon 4:08 AM EDT (7/5) 7:42 PM EDT (7/5)
Length of Visible Light 17h 05m
Length of Day
15h 46m
Waning Crescent, 6% of the Moon is Illuminated
Jul 5
Waning Crescent
Jul 8
New
Jul 15
First Quarter
Jul 22
Full
Jul 29
Last Quarter

Hourly Weather History & Observations

Time (EDT) Temp. Heat Index Dew Point Humidity Pressure Visibility Wind Dir Wind Speed Gust Speed Precip Events Conditions
12:53 AM 61.0 °F - 57.0 °F 87% 29.92 in 10.0 mi Calm Calm - N/A   Clear
1:53 AM 66.9 °F - 60.1 °F 79% 29.91 in 10.0 mi SSW 5.8 mph - N/A   Clear
2:53 AM 66.9 °F - 59.0 °F 76% 29.92 in 10.0 mi SSW 5.8 mph - N/A   Clear
3:53 AM 66.9 °F - 59.0 °F 76% 29.91 in 10.0 mi SSW 4.6 mph - N/A   Clear
4:53 AM 68.0 °F - 57.9 °F 70% 29.92 in 10.0 mi SSW 6.9 mph - N/A   Scattered Clouds
5:53 AM 66.0 °F - 57.9 °F 75% 29.91 in 10.0 mi SSW 3.5 mph - N/A   Clear
6:53 AM 66.0 °F - 57.9 °F 75% 29.92 in 10.0 mi SW 3.5 mph - N/A   Mostly Cloudy
7:53 AM 66.0 °F - 59.0 °F 78% 29.92 in 10.0 mi SW 3.5 mph - N/A   Overcast
8:53 AM 69.1 °F - 60.1 °F 73% 29.93 in 10.0 mi SSW 3.5 mph - N/A   Clear
9:53 AM 77.0 °F - 59.0 °F 54% 29.93 in 10.0 mi WSW 10.4 mph 18.4 mph N/A   Partly Cloudy
10:53 AM 80.1 °F 80.9 °F 60.1 °F 50% 29.93 in 10.0 mi SW 9.2 mph - N/A   Clear
11:53 AM 81.0 °F 81.9 °F 62.1 °F 52% 29.93 in 10.0 mi South 8.1 mph - N/A   Clear
12:53 PM 84.0 °F 84.0 °F 60.1 °F 44% 29.91 in 10.0 mi South 10.4 mph - N/A   Clear
1:53 PM 84.9 °F 83.7 °F 55.9 °F 37% 29.89 in 10.0 mi SSW 12.7 mph - N/A   Clear
2:53 PM 84.9 °F - 52.0 °F 32% 29.88 in 10.0 mi SW 9.2 mph 20.7 mph N/A   Partly Cloudy
3:53 PM 87.1 °F - 52.0 °F 30% 29.87 in 10.0 mi SW 12.7 mph 19.6 mph N/A   Clear
4:53 PM 84.9 °F 83.3 °F 54.0 °F 34% 29.86 in 10.0 mi SSW 10.4 mph - N/A   Scattered Clouds
5:53 PM 86.0 °F 84.5 °F 55.0 °F 35% 29.85 in 10.0 mi SSW 11.5 mph 19.6 mph N/A   Scattered Clouds
6:53 PM 84.9 °F 83.6 °F 55.0 °F 36% 29.85 in 10.0 mi SSW 10.4 mph - N/A   Clear
7:53 PM 82.0 °F 81.4 °F 55.0 °F 39% 29.85 in 10.0 mi SW 5.8 mph - N/A   Clear
8:53 PM 80.1 °F 80.2 °F 55.9 °F 43% 29.85 in 10.0 mi SSW 4.6 mph - N/A   Mostly Cloudy
9:53 PM 77.0 °F - 57.0 °F 50% 29.85 in 10.0 mi SSW 5.8 mph - N/A   Clear
10:53 PM 75.0 °F - 57.0 °F 53% 29.86 in 10.0 mi SSW 3.5 mph - N/A   Scattered Clouds
11:53 PM 73.9 °F - 57.0 °F 55% 29.85 in 10.0 mi SSW 5.8 mph - N/A   Partly Cloudy